GENESIS 2 (31789 NORAD) Tracking and Keplerian Element Data

This shows tracking and keplerian element data for the satellite.

Feedback or suggestion? Click here.




ElementValue
Catalog31789
NameGENESIS 2
Epoch Orbit60891
Epoch Day198.90426513
Epoch Year2018
RAAN111.8788
Inclination64.5052
Eccentricity0.0019969
Argument of Perigee319.9703
Mean Anonmoly39.9946
Mean Motion15.16602602
Decay Rate2.89E-06
L11 31789U 07028A 18198.90426513 .00000289 00000-0 25042-4 0 9998
L22 31789 64.5052 111.8788 0019969 319.9703 39.9946 15.16602602608915

Live tracking and technical data element details for GENESIS 2 (NORAD 31789). GENESIS 2 can be tracked NOW for your location showing map with azimuth and elevation plus other details from your city location.

Track the satellite on the map from your city or location and see movement details for azimuth, elevation, latitude, longitude, range, height, and movement on the map or in text.







IsCatalogInMostPopularTable: catalog: 31789, numindb: 44
Update: records affected: 1



GetName: 31789 GENESIS 2

Hit Count: updated at: Fri, 20 Jul 2018 20:24:52 GMT